St. Petersburg, FL

1:36 AM EDT on April 27, 2017 (GMT -0400)
Whitted

Weather History for KSPG - April, 2012

Change the Weather History Date:

Thursday, April 12, 2012

  Actual Average Record
Temperature  
Mean Temperature 75 °F -  
Max Temperature 82 °F 80 °F 90 °F (1967)
Min Temperature 69 °F 63 °F 53 °F (1998)
Cooling Degree Days 10    
Growing Degree Days 25 (Base 50)    
Moisture  
Dew Point 54 °F    
Average Humidity 53    
Maximum Humidity 81    
Minimum Humidity 28    
Precipitation  
Precipitation 0.00 in - - ()
Sea Level Pressure  
Sea Level Pressure 30.04 in    
Wind  
Wind Speed 7 mph (North)    
Max Wind Speed 12 mph    
Max Gust Speed 21 mph    
Visibility 8 miles    
Events      
Averages and records for this station are not official NWS values.
T = Trace of Precipitation, MM = Missing Value Source: NWS Daily Summary

Daily Weather History Graph

Daily Weather History Graph

Search for Another Location

Airport or City:

Trip Planner

Search our weather history database for the weather conditions in past years. The results will help you decide how hot, cold, wet, or windy it might be!

Date:

Astronomy

Apr. 12, 2012 Rise Set
Actual Time 7:08 AM EDT 7:54 PM EDT
Civil Twilight 6:44 AM EDT 8:18 PM EDT
Nautical Twilight 6:16 AM EDT 8:46 PM EDT
Astronomical Twilight 5:47 AM EDT 9:15 PM EDT
Moon 1:23 AM EDT (4/12) 12:17 PM EDT (4/12)
Length of Visible Light 13h 33m
Length of Day
12h 45m
Waning Gibbous, 59% of the Moon is Illuminated
Apr 12
Waning Gibbous
Apr 13
Last Quarter
Apr 21
New
Apr 29
First Quarter
May 5
Full

Hourly Weather History & Observations

Time (EDT) Temp. Dew Point Humidity Pressure Visibility Wind Dir Wind Speed Gust Speed Precip Events Conditions
12:53 AM 73.0 °F 61.0 °F 66% 30.01 in 10.0 mi NW 5.8 mph - N/A   Clear
1:53 AM 72.0 °F 61.0 °F 68% 30.01 in 10.0 mi NW 6.9 mph - N/A   Clear
2:53 AM 72.0 °F 62.1 °F 71% 29.99 in 10.0 mi NNW 6.9 mph - N/A   Clear
3:53 AM 71.1 °F 64.0 °F 78% 29.99 in 10.0 mi North 4.6 mph - N/A   Clear
4:53 AM 71.1 °F 64.9 °F 81% 29.99 in 10.0 mi North 4.6 mph - N/A   Clear
5:27 AM 71.6 °F 64.4 °F 78% 30.00 in 10.0 mi NNE 6.9 mph - N/A   Mostly Cloudy
5:53 AM 70.0 °F 62.1 °F 76% 30.01 in 10.0 mi NNE 6.9 mph - N/A   Scattered Clouds
7:53 AM 69.1 °F 52.0 °F 54% 30.04 in 10.0 mi NNE 9.2 mph - N/A   Clear
8:29 AM 69.8 °F 53.6 °F 56% 30.05 in 3.0 mi North 6.9 mph - N/A   Haze
8:37 AM 69.8 °F 53.6 °F 56% 30.05 in 2.0 mi NNE 9.2 mph - N/A   Haze
8:45 AM 69.8 °F 53.6 °F 56% 30.06 in 1.2 mi NNE 11.5 mph - N/A   Haze
8:53 AM 70.0 °F 53.1 °F 55% 30.06 in 1.0 mi NNE 10.4 mph - N/A   Haze
9:53 AM 73.0 °F 52.0 °F 48% 30.07 in 1.5 mi NNE 8.1 mph - N/A   Haze
10:31 AM 73.4 °F 51.8 °F 47% 30.08 in 2.0 mi ENE 9.2 mph - N/A   Haze
10:42 AM 75.2 °F 50.0 °F 41% 30.08 in 3.0 mi ENE 9.2 mph - N/A   Haze
10:53 AM 75.0 °F 51.1 °F 43% 30.08 in 4.0 mi ENE 9.2 mph - N/A   Haze
11:53 AM 77.0 °F 50.0 °F 39% 30.08 in 10.0 mi NE 10.4 mph - N/A   Clear
12:53 PM 79.0 °F 50.0 °F 36% 30.06 in 10.0 mi NE 5.8 mph - N/A   Clear
1:53 PM 81.0 °F 51.1 °F 35% 30.06 in 10.0 mi ENE 5.8 mph - N/A   Clear
2:53 PM 79.0 °F 48.9 °F 35% 30.04 in 10.0 mi NNW 10.4 mph 20.7 mph N/A   Clear
3:53 PM 79.0 °F 46.9 °F 32% 30.02 in 10.0 mi Variable 6.9 mph 18.4 mph N/A   Clear
4:53 PM 79.0 °F 43.0 °F 28% 30.02 in 10.0 mi NW 10.4 mph 19.6 mph N/A   Clear
5:53 PM 79.0 °F 44.1 °F 29% 30.01 in 10.0 mi NNW 8.1 mph - N/A   Clear
6:53 PM 75.9 °F 48.9 °F 38% 30.01 in 10.0 mi North - - N/A   Clear
7:53 PM 73.9 °F 53.1 °F 48% 30.02 in 10.0 mi North 11.5 mph - N/A   Clear
8:53 PM 72.0 °F 54.0 °F 53% 30.05 in 10.0 mi North 10.4 mph - N/A   Clear
9:53 PM 72.0 °F 57.0 °F 59% 30.06 in 7.0 mi North 9.2 mph - N/A   Clear
10:53 PM 71.1 °F 59.0 °F 66% 30.07 in 8.0 mi North 6.9 mph - N/A   Clear
11:53 PM 71.1 °F 61.0 °F 70% 30.07 in 8.0 mi NNE 5.8 mph - N/A   Clear